Flag for Canada Weather past 2 weeks in Saint-Jérôme, Quebec, Canada

Now
63 °F

Partly sunny.


Feels Like: 63 °F
Forecast: 46 / 63 °F
Wind: 10 mph from North

Location: Montreal / Mirabel

Current Time: Apr 28, 2015 at 4:08:22 PM

Latest Report: Apr 28, 2015 at 3:00 PM


Visibility: 45 mi

Pressure: 29.83 "Hg

Humidity: 37%

Dew point: 36 °F

Location of Saint-JérômeLocation

Historic Weather in Saint-Jérôme — Graph

°F

Saint-Jérôme temperature yesterday

Maximum temperature yesterday: 59 °F (at 4:00 PM)
Minimum temperature yesterday: 39 °F (at 3:00 AM)
Average temperature yesterday: 49 °F

Past Weeks' High & Low Weather Summary

 TemperatureHumidityPressure
High72 °F (Apr 13, 3:00 PM)100% (Apr 20, 4:00 PM)30.49 "Hg (Apr 20, 4:00 PM)
Low28 °F (Apr 16, 4:00 AM)12% (Apr 15, 3:00 PM)29.51 "Hg (Apr 23, 5:00 AM)
Average45 °F59%29.89 "Hg
* Reported Apr 13 2:00 PM — Apr 28 2:00 PM, Saint-Jérôme, Weather by CustomWeather, © 2015

Note: Actual official high and low records may vary slightly from our data, if they occured in-between our weather recording intervals... More about our weather records

Advertising

Saint-Jérôme weather history for previous 24 hours

 ConditionsComfort  
Time TempWeatherWind HumidityBarometerVisibility
2:00 PM
Tue, Apr 28
61 °FPartly sunny.10 mph36%29.86 "Hg45 mi
1:00 PM59 °FPartly sunny.3 mph45%29.88 "Hg45 mi
12:00 PM55 °FPartly sunny.3 mph47%29.91 "Hg45 mi
11:00 AM54 °FPartly sunny.6 mph51%29.93 "Hg45 mi
10:00 AM54 °FPartly sunny.7 mph51%29.94 "Hg45 mi
9:00 AM54 °FScattered clouds.7 mph54%29.95 "Hg45 mi
8:00 AM50 °FPassing clouds.6 mph62%29.94 "Hg45 mi
7:00 AM43 °FScattered clouds.2 mph81%29.94 "Hg45 mi
6:00 AM39 °FPassing clouds.2 mph87%29.91 "Hg45 mi
5:00 AM43 °FPassing clouds.2 mph81%29.90 "Hg25 mi
4:00 AM45 °FPassing clouds.No wind81%29.89 "Hg25 mi
3:00 AM50 °FPartly cloudy.6 mph62%29.88 "Hg25 mi
2:00 AM52 °FMostly cloudy.7 mph62%29.87 "Hg25 mi
1:00 AM52 °FOvercast.7 mph62%29.86 "Hg25 mi
12:00 AM52 °FPassing clouds.2 mph58%29.85 "Hg25 mi
11:00 PM
Mon, Apr 27
54 °FPartly cloudy.8 mph54%29.85 "Hg25 mi
10:00 PM54 °FPartly cloudy.7 mph54%29.85 "Hg25 mi
9:00 PM55 °FMostly cloudy.6 mph55%29.85 "Hg25 mi
8:00 PM57 °FMostly cloudy.5 mph51%29.82 "Hg25 mi
7:00 PM57 °FMostly cloudy.6 mph51%29.79 "Hg45 mi
6:00 PM59 °FSprinkles. Mostly cloudy.8 mph51%29.77 "Hg45 mi
5:00 PM57 °FSprinkles. Partly sunny.3 mph59%29.76 "Hg45 mi
4:00 PM59 °FPartly sunny.8 mph48%29.76 "Hg45 mi
Weather by CustomWeather, © 2015

See weather overviewHow to use our weather pages